Location: Newark
(22.3060°N, 114.2134°E)
Time: 20:42:19
(UTC+00:00)

Explorer 11/Cluster Stage 4 - Pass Details

Date: 05 August 2021
Orbit: 467 x 1256 km, 28.8° (Epoch: 27 September)

Event Time Altitude Azimuth Distance (km) Brightness Sun altitude
Rises 20:40:43 0° 219° (SW) 3,115 - -17.1°
Reaches altitude 10° 20:43:11 10° 209° (SSW) 2,319 - -16.6°
Exits shadow 20:44:20 16° 201° (SSW) 1,998 8.2 -16.4°
Maximum altitude 20:48:06 32° 147° (SSE) 1,501 8.1 -15.6°
Drops below altitude 10° 20:54:02 10° 87° (E) 2,827 10.5 -14.4°
Sets 20:57:19 0° 78° (ENE) 3,908 11.9 -13.7°
